This demonstration page uses our WeatherBlox Daily Observations layout. Learn more.

Left ArrowRight Arrow

Hourly Observations for May 12, 2016

Temp ( °F °C ) Dew Point ( °F °C ) Humidity (%) Winds ( mph kmh ) Pressure ( in mb ) Visibility ( mi km ) Precip ( " mm )
12:52 am 00:52 Cloudy 68 20 62 16.7 81 81 N 9 15 30.00 1016 10 16 0.00 0.00
1:52 am 01:52 Mostly Cloudy 67 19.4 61 16.1 81 81 N 10 17 29.97 1015 10 16 0.00 0.00
2:43 am 02:43 Cloudy 67 19.4 60 15.6 79 79 NNE 7 11 30.00 1016 10 16 0.00 0.00
2:52 am 02:52 Cloudy 66 18.9 60 15.6 81 81 NNW 7 11 30.01 1016 10 16 0.00 0.00
3:18 am 03:18 Cloudy with Nearby Thunderstorms 66 18.9 60 15.6 81 81 N 10 17 30.03 1017 10 16 0.00 0.00
3:40 am 03:40 Cloudy 64 18 61 16 88 88 N 16 26 30.00 1016 10 16 0.00 0.00
3:52 am 03:52 Mostly Cloudy 64 17.8 59 15 84 84 N 20 31 29.98 1015 10 16 0.00 0.03
4:24 am 04:24 Mostly Cloudy 63 17 59 15 88 88 NW 10 17 30.03 1017 10 16 0.00 0.00
4:49 am 04:49 Cloudy with Nearby Thunderstorms 63 17 59 15 88 88 W 8 13 30.09 1019 10 16 0.00 0.03
4:52 am 04:52 Cloudy with Nearby Thunderstorms 63 17.2 58 14.4 84 84 W 7 11 30.06 1018 10 16 0.00 0.03
5:08 am 05:08 Cloudy 63 17 57 14 83 83 NW 5 7 30.09 1019 10 16 0.00 0.00
5:52 am 05:52 Cloudy with Light Rain 62 16.7 57 13.9 84 84 W 14 22 30.10 1019 10 16 0.00 0.03
6:52 am 06:52 Cloudy with Light Rain 60 15.6 55 12.8 84 84 N 7 11 30.09 1019 10 16 0.04 1.02
7:52 am 07:52 Mostly Sunny 61 16.1 56 13.3 84 84 NNE 7 11 30.10 1019 10 16 0.00 0.03
8:52 am 08:52 Sunny 63 17.2 56 13.3 78 78 N 9 15 30.10 1019 10 16 0.00 0.00
9:52 am 09:52 Sunny 65 18.3 55 12.8 70 70 NNW 15 24 30.11 1020 10 16 0.00 0.00
10:52 am 10:52 Partly Cloudy 67 19.4 55 12.8 66 66 NNW 14 22 30.13 1020 10 16 0.00 0.00
11:52 am 11:52 Partly Cloudy 69 20.6 53 11.7 57 57 NNW 16 26 30.14 1021 10 16 0.00 0.00
12:52 pm 12:52 Mostly Sunny 70 21.1 49 9.4 47 47 WNW 13 20 30.15 1021 10 16 0.00 0.00
1:52 pm 13:52 Sunny 72 22.2 43 6.1 35 35 NW 14 22 30.14 1021 10 16 0.00 0.00
2:52 pm 14:52 Sunny 71 21.7 41 5 34 34 NW 15 24 30.14 1021 10 16 0.00 0.00
3:52 pm 15:52 Sunny 72 22.2 40 4.4 31 31 NNW 18 30 30.14 1021 10 16 0.00 0.00
4:52 pm 16:52 Sunny 72 22.2 40 4.4 31 31 NW 14 22 30.13 1020 10 16 0.00 0.00
5:52 pm 17:52 Sunny 71 21.7 40 4.4 32 32 NW 15 24 30.13 1020 10 16 0.00 0.00
6:52 pm 18:52 Sunny 69 20.6 41 5 36 36 NNW 12 19 30.12 1020 10 16 0.00 0.00
7:52 pm 19:52 Sunny 63 17.2 44 6.7 50 50 NNW 7 11 30.13 1020 10 16 0.00 0.00
8:52 pm 20:52 Clear 63 17.2 43 6.1 48 48 NW 3 6 30.14 1021 10 16 0.00 0.00
9:52 pm 21:52 Clear 56 13.3 45 7.2 67 67 Calm 30.15 1021 10 16 0.00 0.00
10:52 pm 22:52 Clear 53 11.7 44 6.7 72 72 Calm 30.16 1021 10 16 0.00 0.00
11:52 pm 23:52 Clear 51 10.6 44 6.7 77 77 SSW 3 6 30.16 1022 10 16 0.00 0.00

Powered by AerisWeather